FW6471 Weather Reports


Display with metric or nautical units.
time (UTC)temp
F
wind
direction
speed
MPH
gust
MPH
rain 1hr
in
rain 24hr
in
rain mn
in
humidity
%
barometer
mb
20260902164105 86 22 0.0 0.0 0.00 0.02 0.01 81 1017.2
20260902163606 87 21 0.0 0.0 0.00 0.02 0.01 79 1017.2
20260902163104 87 21 0.0 0.0 0.00 0.02 0.01 81 1017.2
20260902162605 87 21 0.0 0.0 0.00 0.02 0.01 80 1017.3
20260902162105 87 327 0.0 2.0 0.00 0.02 0.01 77 1017.3
20260902161605 87 317 0.0 1.0 0.00 0.02 0.01 78 1017.3
20260902161105 87 48 0.0 2.0 0.00 0.02 0.01 80 1017.5
20260902160605 87 331 0.0 6.0 0.00 0.02 0.01 80 1017.6
20260902160110 86 316 0.0 7.0 0.00 0.02 0.01 85 1017.6
20260902155604 86 320 0.0 2.0 0.00 0.02 0.01 82 1017.7
20260902155105 86 297 0.0 5.0 0.00 0.02 0.01 83 1017.7
20260902154605 86 3 0.0 5.0 0.00 0.02 0.01 82 1017.8
20260902154105 86 10 1.0 3.0 0.00 0.02 0.01 82 1017.9
20260902153604 86 333 0.0 0.0 0.00 0.02 0.01 85 1017.9
20260902153105 85 308 0.0 2.0 0.00 0.02 0.01 84 1018.0
20260902152605 84 310 0.0 5.0 0.00 0.02 0.01 85 1018.1
20260902152104 83 306 1.0 2.0 0.00 0.02 0.01 86 1018.1
20260902151605 83 253 0.0 0.0 0.00 0.02 0.01 87 1018.1
20260902150605 83 327 0.0 3.0 0.00 0.02 0.01 86 1018.0
20260902150109 84 106 0.0 3.0 0.00 0.02 0.01 86 1018.0
20260902145604 84 324 2.0 5.0 0.00 0.02 0.01 86 1018.1
20260902145104 84 298 1.0 3.0 0.00 0.02 0.01 87 1018.0
20260902143105 82 297 1.0 5.0 0.00 0.02 0.01 89 1018.0
20260902142605 82 314 1.0 3.0 0.00 0.02 0.01 89 1018.0
20260902142104 82 329 1.0 3.0 0.00 0.02 0.01 89 1017.9
20260902141604 82 335 1.0 3.0 0.00 0.02 0.01 90 1017.9
20260902141105 82 312 2.0 5.0 0.00 0.02 0.01 90 1017.9
20260902140604 81 320 1.0 3.0 0.00 0.02 0.01 91 1017.9
20260902140108 81 10 2.0 8.0 0.00 0.02 0.01 91 1017.9
20260902135605 81 311 2.0 3.0 0.00 0.02 0.01 91 1017.9
20260902135105 81 309 2.0 7.0 0.00 0.02 0.01 92 1017.9
20260902134604 80 317 3.0 6.0 0.00 0.02 0.01 93 1017.9
20260902134105 80 329 4.0 6.0 0.00 0.02 0.01 93 1017.9
20260902133604 79 316 3.0 5.0 0.00 0.02 0.01 94 1017.9
20260902132605 79 13 2.0 5.0 0.00 0.02 0.01 94 1018.0
20260902132104 78 147 2.0 3.0 0.00 0.02 0.01 94 1018.1
20260902131604 78 316 3.0 5.0 0.00 0.02 0.01 94 1018.0
20260902131105 78 320 2.0 5.0 0.00 0.02 0.01 95 1018.0
20260902130604 78 319 1.0 5.0 0.00 0.02 0.01 95 1018.0
20260902130109 78 315 2.0 6.0 0.00 0.02 0.01 95 1018.0
20260902125604 78 322 2.0 3.0 0.00 0.02 0.01 95 1018.0
20260902125104 78 329 1.0 3.0 0.00 0.02 0.01 95 1017.9
20260902124605 78 43 1.0 6.0 0.00 0.02 0.01 95 1018.0
20260902124104 78 326 2.0 5.0 0.00 0.02 0.01 95 1017.9
20260902123605 78 304 3.0 6.0 0.00 0.02 0.01 95 1017.9
20260902122605 77 327 1.0 3.0 0.00 0.02 0.01 95 1017.9
20260902122104 77 294 1.0 3.0 0.00 0.02 0.01 95 1017.9
20260902121605 77 332 3.0 6.0 0.00 0.02 0.01 95 1017.8
20260902120605 77 298 2.0 3.0 0.00 0.02 0.01 95 1017.7
20260902120108 77 327 2.0 3.0 0.00 0.02 0.01 95 1017.8
20260902115605 77 317 2.0 3.0 0.00 0.02 0.01 95 1017.8
20260902115104 77 310 1.0 6.0 0.00 0.02 0.01 95 1017.8
20260902114104 76 320 3.0 5.0 0.00 0.02 0.01 95 1017.6
20260902113605 76 320 2.0 3.0 0.00 0.02 0.01 95 1017.6
20260902113104 76 320 1.0 5.0 0.00 0.02 0.01 95 1017.6
20260902112604 76 324 3.0 5.0 0.00 0.02 0.01 95 1017.6
20260902111604 76 326 2.0 3.0 0.00 0.02 0.01 95 1017.4
20260902111105 76 328 2.0 3.0 0.00 0.02 0.01 95 1017.3
20260902110604 76 334 1.0 3.0 0.00 0.02 0.01 95 1017.2
20260902110108 76 331 2.0 5.0 0.00 0.02 0.01 95 1017.2
20260902105605 76 318 1.0 3.0 0.00 0.02 0.01 95 1017.1
20260902104604 76 318 1.0 3.0 0.00 0.02 0.01 95 1017.0
20260902104104 76 318 1.0 3.0 0.00 0.02 0.01 95 1017.0
20260902103604 76 334 1.0 3.0 0.00 0.02 0.01 95 1017.0
20260902103105 76 334 1.0 2.0 0.00 0.02 0.01 95 1017.0
20260902102604 76 335 2.0 3.0 0.00 0.02 0.01 95 1016.9
20260902102104 76 331 2.0 5.0 0.00 0.02 0.01 94 1017.0
20260902101605 76 315 1.0 3.0 0.00 0.02 0.01 94 1016.9
20260902100109 76 315 0.0 0.0 0.00 0.02 0.01 94 1017.0
20260902095104 76 315 0.0 0.0 0.00 0.02 0.01 94 1017.0
20260902094105 76 315 0.0 1.0 0.00 0.02 0.01 94 1016.9
20260902093604 76 315 1.0 2.0 0.00 0.02 0.01 94 1016.8
20260902093104 76 320 0.0 2.0 0.00 0.02 0.01 94 1016.7
20260902092604 76 320 1.0 2.0 0.00 0.02 0.01 94 1016.7
20260902092105 76 320 0.0 0.0 0.00 0.02 0.01 94 1016.8
20260902091104 76 320 1.0 2.0 0.00 0.02 0.01 94 1016.6
20260902090605 76 320 0.0 0.0 0.00 0.02 0.01 94 1016.5
20260902090108 76 320 0.0 0.0 0.00 0.02 0.01 94 1016.5
20260902085604 76 320 0.0 0.0 0.00 0.02 0.01 94 1016.4
20260902084604 76 320 0.0 1.0 0.00 0.02 0.01 94 1016.4
20260902084104 76 320 1.0 2.0 0.00 0.02 0.01 94 1016.5
20260902083604 76 320 0.0 1.0 0.00 0.02 0.01 94 1016.4
20260902083104 76 320 0.0 2.0 0.00 0.02 0.01 94 1016.4
20260902082603 76 320 0.0 3.0 0.00 0.02 0.01 94 1016.5
20260902082104 76 320 2.0 3.0 0.00 0.02 0.01 94 1016.4
20260902080604 76 335 0.0 1.0 0.00 0.02 0.01 94 1016.5
20260902080109 76 317 0.0 0.0 0.00 0.02 0.01 94 1016.5
20260902075604 76 315 0.0 0.0 0.00 0.02 0.01 94 1016.5
20260902075104 76 315 0.0 0.0 0.00 0.02 0.01 94 1016.5
20260902074604 76 315 0.0 0.0 0.00 0.02 0.01 94 1016.6
20260902074104 76 315 0.0 0.0 0.00 0.02 0.01 94 1016.4
20260902073603 76 315 0.0 0.0 0.00 0.02 0.01 94 1016.4
20260902073104 76 316 0.0 0.0 0.00 0.02 0.01 94 1016.4
20260902072604 76 316 0.0 0.0 0.00 0.02 0.01 94 1016.6
20260902071604 76 306 0.0 0.0 0.00 0.02 0.01 94 1016.6
20260902070604 76 324 0.0 0.0 0.00 0.02 0.01 94 1016.7
20260902065104 76 323 0.0 0.0 0.00 0.02 0.01 94 1016.9
20260902064604 76 323 0.0 0.0 0.00 0.02 0.01 94 1016.9
20260902064104 76 314 0.0 0.0 0.01 0.02 0.01 94 1016.9
20260902063604 76 314 0.0 0.0 0.01 0.02 0.01 94 1016.9
20260902063104 76 314 0.0 0.0 0.01 0.02 0.01 94 1016.9
20260902062604 76 314 0.0 0.0 0.01 0.02 0.01 94 1016.9
20260902062105 76 314 0.0 0.0 0.01 0.02 0.01 94 1017.0
20260902060604 76 314 0.0 0.0 0.01 0.02 0.01 94 1017.1
20260902060108 76 314 0.0 0.0 0.01 0.02 0.01 94 1017.1
20260902055604 76 314 0.0 0.0 0.01 0.02 0.01 94 1017.1
20260902055104 76 314 0.0 0.0 0.01 0.02 0.01 94 1017.2
20260902054604 76 314 0.0 0.0 0.01 0.02 0.01 94 1017.2
20260902054104 76 314 0.0 0.0 0.00 0.01 0.00 94 1017.3
20260902053604 76 313 0.0 0.0 0.00 0.01 0.00 94 1017.2
20260902053104 76 313 0.0 0.0 0.00 0.01 0.00 94 1017.2
20260902052604 76 313 0.0 0.0 0.00 0.01 0.00 94 1017.3
20260902052104 76 313 0.0 0.0 0.00 0.01 0.00 94 1017.3
20260902051604 76 313 0.0 0.0 0.00 0.01 0.00 94 1017.2
20260902051104 76 313 0.0 0.0 0.00 0.01 0.00 94 1017.3
20260902050603 76 313 0.0 9.0 0.00 0.01 0.00 94 1017.4
20260902050108 76 313 0.0 0.0 0.00 0.01 0.00 94 1017.4
20260902045603 76 313 0.0 0.0 0.00 0.01 0.00 94 1017.4
20260902044604 76 313 0.0 0.0 0.00 0.01 0.00 94 1017.3
20260902044106 76 313 0.0 0.0 0.00 0.01 0.00 94 1017.3
20260902043606 76 313 0.0 0.0 0.00 0.01 0.00 94 1017.4
20260902043106 77 313 0.0 0.0 0.00 0.01 0.00 94 1017.4
20260902042105 77 313 0.0 0.0 0.00 0.01 0.00 94 1017.5
20260902041606 77 313 0.0 0.0 0.00 0.01 0.00 93 1017.6
20260902041106 77 313 0.0 0.0 0.00 0.01 0.00 93 1017.6
20260902040110 77 313 0.0 0.0 0.00 0.01 0.00 93 1017.7
20260902035606 77 313 0.0 0.0 0.00 0.01 0.01 93 1017.7
20260902035105 77 313 0.0 0.0 0.00 0.01 0.01 93 1017.7
20260902034606 77 313 0.0 0.0 0.00 0.01 0.01 93 1017.7
20260902034105 77 313 0.0 0.0 0.00 0.01 0.01 93 1017.8
20260902033105 77 313 0.0 0.0 0.00 0.01 0.01 93 1018.0
20260902031606 77 313 0.0 0.0 0.00 0.01 0.01 93 1018.0
20260902031106 77 313 0.0 0.0 0.00 0.01 0.01 93 1018.0
20260902030605 77 313 0.0 0.0 0.00 0.01 0.01 93 1018.1
20260902030110 77 313 0.0 0.0 0.00 0.01 0.01 93 1018.1
20260902025605 77 313 0.0 0.0 0.00 0.01 0.01 93 1018.1
20260902025106 77 313 0.0 0.0 0.00 0.01 0.01 93 1018.1
20260902024606 77 313 0.0 0.0 0.00 0.01 0.01 93 1018.1
20260902024106 77 313 0.0 0.0 0.00 0.01 0.01 93 1018.1
20260902023606 77 313 0.0 0.0 0.00 0.01 0.01 92 1018.1
20260902023106 77 313 0.0 0.0 0.00 0.01 0.01 92 1018.0
20260902022105 77 313 0.0 0.0 0.00 0.01 0.01 92 1017.9
20260902021605 77 313 0.0 0.0 0.00 0.01 0.01 92 1017.9
20260902021106 77 313 0.0 0.0 0.00 0.01 0.01 92 1017.9
20260902020606 77 313 0.0 0.0 0.00 0.01 0.01 92 1017.8
20260902020109 77 313 0.0 0.0 0.00 0.01 0.01 92 1017.8
20260902015606 77 313 0.0 0.0 0.00 0.01 0.01 92 1017.8
20260902015105 78 313 0.0 0.0 0.00 0.01 0.01 92 1017.8
20260902014605 78 313 0.0 0.0 0.00 0.01 0.01 92 1017.7
20260902014106 78 313 0.0 0.0 0.00 0.01 0.01 92 1017.6
20260902013605 78 313 0.0 0.0 0.00 0.01 0.01 91 1017.6
20260902013106 78 313 0.0 0.0 0.01 0.01 0.01 91 1017.4
20260902012105 78 313 0.0 0.0 0.01 0.01 0.01 91 1017.4
20260902011606 78 313 0.0 0.0 0.01 0.01 0.01 91 1017.4
20260902010606 78 334 0.0 0.0 0.01 0.01 0.01 91 1017.5
20260902010109 78 334 0.0 0.0 0.01 0.01 0.01 91 1017.4
20260902005605 78 334 0.0 0.0 0.01 0.01 0.01 91 1017.5
20260902005106 79 334 0.0 0.0 0.01 0.01 0.01 91 1017.5
20260902004605 79 334 0.0 0.0 0.01 0.01 0.01 91 1017.5
20260902004106 79 335 0.0 0.0 0.01 0.01 0.01 91 1017.5
20260902003606 79 335 0.0 0.0 0.01 0.01 0.01 90 1017.5
20260902003106 79 335 0.0 0.0 0.00 0.00 0.00 90 1017.5
20260902002606 79 335 0.0 0.0 0.00 0.00 0.00 90 1017.5
20260902002105 80 335 0.0 0.0 0.00 0.00 0.00 89 1017.5
20260902001605 80 335 0.0 0.0 0.00 0.00 0.00 89 1017.4
20260902001106 80 335 0.0 0.0 0.00 0.00 0.00 89 1017.4
20260902000605 80 335 0.0 0.0 0.00 0.00 0.00 88 1017.3
20260902000109 80 335 0.0 0.0 0.00 0.00 0.00 88 1017.2
20260901235606 80 335 0.0 0.0 0.00 0.00 0.00 88 1017.2
20260901235105 80 335 0.0 0.0 0.00 0.00 0.00 88 1017.0
20260901234106 81 335 0.0 0.0 0.00 0.00 0.00 87 1016.9
20260901233605 81 335 0.0 0.0 0.00 0.00 0.00 88 1016.8
20260901233106 81 335 0.0 0.0 0.00 0.00 0.00 87 1016.8
20260901232605 81 335 0.0 0.0 0.00 0.00 0.00 87 1016.8
20260901232105 81 335 0.0 0.0 0.00 0.00 0.00 87 1016.9
20260901231606 81 338 0.0 0.0 0.00 0.00 0.00 87 1017.0
20260901231105 81 338 0.0 0.0 0.00 0.00 0.00 88 1017.0
20260901230605 81 338 0.0 0.0 0.00 0.00 0.00 88 1017.1
20260901230109 81 338 0.0 0.0 0.00 0.00 0.00 88 1017.0
20260901225605 81 336 0.0 0.0 0.00 0.00 0.00 89 1017.0
20260901225106 82 336 0.0 0.0 0.00 0.00 0.00 89 1017.0
20260901224105 82 336 0.0 0.0 0.00 0.00 0.00 89 1017.0
20260901223605 82 336 0.0 0.0 0.00 0.00 0.00 89 1017.0
20260901223106 82 20 0.0 0.0 0.00 0.00 0.00 89 1017.1
20260901222605 82 20 0.0 0.0 0.00 0.00 0.00 89 1017.1
20260901222105 82 20 0.0 0.0 0.00 0.00 0.00 88 1017.0
20260901221606 82 20 0.0 0.0 0.00 0.00 0.00 88 1016.9
20260901220110 82 20 0.0 0.0 0.00 0.00 0.00 88 1016.7
20260901215605 82 20 0.0 0.0 0.00 0.00 0.00 87 1016.7
20260901215105 82 20 0.0 0.0 0.00 0.00 0.00 88 1016.6
20260901214605 82 20 0.0 0.0 0.00 0.00 0.00 87 1016.6
20260901214105 82 20 0.0 0.0 0.00 0.00 0.00 87 1016.5
20260901213606 82 20 0.0 0.0 0.00 0.00 0.00 86 1016.5
20260901213105 82 20 0.0 0.0 0.00 0.00 0.00 87 1016.6
20260901212606 82 20 0.0 0.0 0.00 0.00 0.00 86 1016.5
20260901212105 83 20 0.0 0.0 0.00 0.00 0.00 86 1016.4
20260901211105 83 75 0.0 0.0 0.00 0.00 0.00 85 1016.4
20260901210605 83 66 0.0 0.0 0.00 0.00 0.00 84 1016.6
20260901205605 84 103 0.0 0.0 0.00 0.00 0.00 82 1016.6
20260901205105 85 54 0.0 1.0 0.00 0.00 0.00 81 1016.5
20260901204605 85 47 0.0 1.0 0.00 0.00 0.00 80 1016.5
20260901204105 85 31 0.0 6.0 0.00 0.00 0.00 81 1016.4
20260901203606 86 56 0.0 3.0 0.00 0.00 0.00 81 1016.4
20260901203106 87 101 1.0 9.0 0.00 0.00 0.00 79 1016.4
20260901202605 88 58 0.0 5.0 0.00 0.00 0.00 78 1016.3
20260901202105 89 63 1.0 8.0 0.00 0.00 0.00 77 1016.2
20260901201605 89 52 0.0 3.0 0.00 0.00 0.00 77 1016.2
20260901201105 89 327 0.0 5.0 0.00 0.00 0.00 76 1016.3
20260901200605 90 42 0.0 9.0 0.00 0.00 0.00 76 1016.3
20260901200109 89 44 1.0 3.0 0.00 0.00 0.00 75 1016.3
20260901195605 90 35 0.0 0.0 0.00 0.00 0.00 77 1016.3
20260901195105 89 26 0.0 2.0 0.00 0.00 0.00 76 1016.4
20260901194605 89 55 0.0 1.0 0.00 0.00 0.00 76 1016.4
20260901194106 89 44 0.0 1.0 0.00 0.00 0.00 77 1016.4
20260901193606 89 28 0.0 0.0 0.00 0.00 0.00 75 1016.5
20260901193105 89 137 0.0 1.0 0.00 0.00 0.00 77 1016.5
20260901191607 89 47 0.0 0.0 0.00 0.00 0.00 77 1016.7
20260901191105 89 99 0.0 0.0 0.00 0.00 0.00 77 1016.6
20260901190605 89 56 0.0 1.0 0.00 0.00 0.00 77 1016.6
20260901190109 88 129 0.0 3.0 0.00 0.00 0.00 78 1016.7
20260901185605 88 61 0.0 1.0 0.00 0.00 0.00 80 1016.7
20260901185104 88 54 0.0 0.0 0.00 0.00 0.00 79 1016.9
20260901184605 88 26 0.0 1.0 0.00 0.00 0.00 79 1017.0
20260901184105 88 145 0.0 2.0 0.00 0.00 0.00 79 1017.1
20260901183605 89 30 0.0 3.0 0.00 0.00 0.00 77 1017.2
20260901183106 89 129 0.0 1.0 0.00 0.00 0.00 77 1017.2
20260901182605 89 77 0.0 1.0 0.00 0.00 0.00 77 1017.3
20260901182105 89 167 0.0 2.0 0.00 0.00 0.00 77 1017.3
20260901181605 88 81 0.0 1.0 0.00 0.00 0.00 80 1017.4
20260901181105 88 50 0.0 5.0 0.00 0.00 0.00 77 1017.5
20260901180605 88 45 1.0 6.0 0.00 0.00 0.00 76 1017.5
20260901180110 89 38 0.0 3.0 0.00 0.00 0.00 75 1017.5
20260901175605 89 299 0.0 3.0 0.00 0.00 0.00 76 1017.5
20260901175105 89 326 0.0 0.0 0.00 0.00 0.00 80 1017.7
20260901174604 88 269 0.0 0.0 0.00 0.00 0.00 78 1017.9
20260901174106 87 62 0.0 0.0 0.00 0.00 0.00 79 1018.1
20260901173604 87 31 0.0 0.0 0.00 0.00 0.00 80 1018.2
20260901173104 87 324 0.0 1.0 0.00 0.00 0.00 79 1018.2
20260901172605 87 18 0.0 0.0 0.00 0.00 0.00 79 1018.3
20260901172105 87 16 0.0 0.0 0.00 0.00 0.00 79 1018.3
20260901171604 87 15 0.0 0.0 0.00 0.00 0.00 81 1018.4
20260901171105 87 47 0.0 1.0 0.00 0.00 0.00 80 1018.4
20260901170605 87 37 0.0 1.0 0.00 0.00 0.00 82 1018.4
20260901164605 87 309 0.0 3.0 0.00 0.00 0.00 82 1018.4